XM-3 (RHYTHM)           
1 28626U 05008A   19259.38717938 -.00000213  00000-0  00000+0 0  9995
2 28626   0.0013 254.9506 0000167 305.2523 209.1250  1.00273246 53344
BLOCK DM-SL R/B         
1 28627U 05008B   19259.05466050 -.00000184  00000-0  00000+0 0  9993
2 28627   0.8970 349.2908 6539081  19.4083 256.1043  2.13874405113665